Volver al catálogo

ECHOSTAR 105/SES 11

ActivoComunicacionesGEO
NORAD 42967·PAYLOAD·🇱🇺 Luxembourg

Lanzado Oct 11, 2017 desde Cape Canaveral Space Force Station

Loading…

TLE

ActualizadoSource: CelesTrak SupGP

Época: Sep 13, 2026, 23:30 UTC

1 42967C 17063A   26256.97916667  .00000001  00000+0  00000+0 0  2562
2 42967   0.0451 310.3348 0002734 200.6596  89.5174  1.00271812    13

Sigue ECHOSTAR 105/SES 11 en tiempo real con AllMySat

Download on the App Store